Weather History for Wolf Point, MT

Change the Weather History Date:

Friday, January 25, 2013

  Actual Average Record
Temperature  
Mean Temperature 11 °F -  
Max Temperature 19 °F 25 °F 51 °F (2012)
Min Temperature 3 °F 0 °F -18 °F (2009)
Degree Days  
Heating Degree Days 54    
Cooling Degree Days 0    
Moisture  
Dew Point 8 °F    
Average Humidity 85    
Maximum Humidity 92    
Minimum Humidity 78    
Precipitation  
Precipitation 0.00 in 0.01 in 0.00 in (2014)
Month to date precipitation 0.09 0.28  
Year to date precipitation 0.09 0.28  
Sea Level Pressure  
Sea Level Pressure 30.11 in    
Wind  
Wind Speed 7 mph (ENE)    
Max Wind Speed 13 mph    
Max Gust Speed -    
Visibility 7 miles    
Events      
T = Trace of Precipitation, MM = Missing Value Source: NWS Daily Summary

Daily Weather History Graph

Daily Weather History Graph

Search for Another Location

Airport:

Trip Planner

Search our weather history database for the weather conditions in past years. The results will help you decide how hot, cold, wet, or windy it might be!

Date:

Astronomy

Jan. 25, 2013 Rise Set
Actual Time 7:38 AM MST 4:51 PM MST
Civil Twilight 7:04 AM MST 5:25 PM MST
Nautical Twilight 6:26 AM MST 6:03 PM MST
Astronomical Twilight 5:49 AM MST 6:40 PM MST
Moon 3:51 PM MST (1/25) 6:20 AM MST (1/25)
Length of Visible Light 10h 21m
Length of Day
9h 13m
Waxing Gibbous, 98% of the Moon is Illuminated
Jan 25
Waxing Gibbous
Jan 26
Full
Feb 3
Last Quarter
Feb 10
New
Feb 17
First Quarter

Hourly Weather History & Observations

Time (MST) Temp. Windchill Dew Point Humidity Pressure Visibility Wind Dir Wind Speed Gust Speed Precip Events Conditions
12:53 AM 18.0 °F 6.1 °F 12.9 °F 81% 30.15 in 10.0 mi WSW 10.4 mph - N/A   Clear
1:53 AM 18.0 °F 8.7 °F 12.9 °F 81% 30.15 in 10.0 mi West 6.9 mph - N/A   Clear
2:53 AM 14.0 °F - 10.9 °F 88% 30.15 in 10.0 mi Calm Calm - N/A   Clear
3:53 AM 8.1 °F 1.4 °F 5.0 °F 87% 30.16 in 9.0 mi South 3.5 mph - N/A   Clear
4:53 AM 6.1 °F - 1.9 °F 83% 30.17 in 10.0 mi Calm Calm - N/A   Clear
5:53 AM 3.0 °F -11.5 °F -0.0 °F 87% 30.18 in 10.0 mi ENE 9.2 mph - N/A   Clear
6:53 AM 6.1 °F -6.8 °F 3.0 °F 87% 30.19 in 10.0 mi ENE 8.1 mph - N/A   Clear
7:53 AM 5.0 °F -8.1 °F 1.9 °F 87% 30.19 in 7.0 mi East 8.1 mph - N/A   Scattered Clouds
8:09 AM 6.8 °F -4.8 °F 3.2 °F 85% 30.07 in 4.0 mi ENE 6.9 mph - N/A   Mostly Cloudy
8:24 AM 6.8 °F -4.8 °F 3.2 °F 85% 30.07 in 2.0 mi ENE 6.9 mph - N/A   Overcast
8:40 AM 8.6 °F -3.7 °F 5.0 °F 85% 30.07 in 4.0 mi East 8.1 mph - N/A   Mostly Cloudy
8:49 AM 8.6 °F -1.3 °F 6.8 °F 92% 30.08 in 4.0 mi East 5.8 mph - N/A   Scattered Clouds
8:53 AM 8.1 °F -2.0 °F 6.1 °F 92% 30.20 in 5.0 mi East 5.8 mph - N/A   Partly Cloudy
9:53 AM 10.0 °F -4.5 °F 7.0 °F 87% 30.20 in 6.0 mi ENE 11.5 mph - N/A   Clear
10:53 AM 12.9 °F -0.9 °F 9.0 °F 84% 30.18 in 7.0 mi East 11.5 mph - N/A   Clear
11:53 AM 15.1 °F 1.1 °F 10.0 °F 80% 30.16 in 7.0 mi ENE 12.7 mph - N/A   Clear
12:53 PM 17.1 °F 3.6 °F 12.0 °F 81% 30.14 in 8.0 mi East 12.7 mph - N/A   Clear
1:53 PM 18.0 °F 6.1 °F 12.0 °F 78% 30.10 in 8.0 mi ENE 10.4 mph - N/A   Clear
2:53 PM 18.0 °F 5.4 °F 12.0 °F 78% 30.09 in 7.0 mi ENE 11.5 mph - N/A   Clear
3:53 PM 18.0 °F 7.7 °F 12.0 °F 78% 30.09 in 7.0 mi ENE 8.1 mph - N/A   Clear
4:53 PM 16.0 °F 8.8 °F 10.9 °F 81% 30.08 in 7.0 mi ENE 4.6 mph - N/A   Clear
5:53 PM 15.1 °F 9.4 °F 10.9 °F 84% 30.08 in 9.0 mi East 3.5 mph - N/A   Clear
6:53 PM 14.0 °F 8.2 °F 10.9 °F 88% 30.05 in 8.0 mi East 3.5 mph - N/A   Clear
7:53 PM 12.0 °F - 9.0 °F 88% 30.05 in 8.0 mi Calm Calm - N/A   Clear
8:53 PM 12.9 °F - 9.0 °F 84% 30.04 in 8.0 mi Calm Calm - N/A   Clear
9:53 PM 12.0 °F 5.9 °F 9.0 °F 88% 30.03 in 7.0 mi NE 3.5 mph - N/A   Clear
10:53 PM 9.0 °F - 6.1 °F 88% 30.03 in 8.0 mi Calm Calm - N/A   Clear
11:53 PM 9.0 °F 2.4 °F 7.0 °F 92% 30.01 in 8.0 mi North 3.5 mph - N/A   Clear